Change the Weather History Date:

Saturday, November 16, 2013

  Actual Average Record
Temperature  
Mean Temperature 40 °F -  
Max Temperature 44 °F 48 °F 69 °F (1999)
Min Temperature 37 °F 19 °F 3 °F (1997)
Degree Days  
Heating Degree Days 24    
Moisture  
Dew Point 32 °F    
Average Humidity 72    
Maximum Humidity 93    
Minimum Humidity 53    
Precipitation  
Precipitation 0.02 in - - ()
Sea Level Pressure  
Sea Level Pressure 29.75 in    
Wind  
Wind Speed 12 mph (WSW)    
Max Wind Speed 25 mph    
Max Gust Speed 36 mph    
Visibility 10 miles    
Events      
Averages and records for this station are not official NWS values.
T = Trace of Precipitation, MM = Missing Value Source: NWS Daily Summary

Daily Weather History Graph

Daily Weather History Graph

Search for Another Location

Airport or City:

Trip Planner

Search our weather history database for the weather conditions in past years. The results will help you decide how hot, cold, wet, or windy it might be!

Date:

Astronomy

Nov. 16, 2013 Rise Set
Actual Time 6:41 AM MST 4:53 PM MST
Civil Twilight 6:13 AM MST 5:20 PM MST
Nautical Twilight 5:42 AM MST 5:52 PM MST
Astronomical Twilight 5:12 AM MST 6:22 PM MST
Moon 4:29 PM MST (11/16) 5:41 AM MST (11/16)
Length of Visible Light 11h 06m
Length of Day
10h 11m
Waxing Gibbous, 99% of the Moon is Illuminated
Nov 16
Waxing Gibbous
Nov 17
Full
Nov 25
Last Quarter
Dec 2
New
Dec 9
First Quarter

Hourly Weather History & Observations

Time (MST) Temp. Windchill Dew Point Humidity Pressure Visibility Wind Dir Wind Speed Gust Speed Precip Events Conditions
12:15 AM 39.2 °F 33.0 °F 33.8 °F 81% 29.76 in 10.0 mi WSW 9.2 mph - N/A   Mostly Cloudy
12:35 AM 39.2 °F 33.6 °F 33.8 °F 81% 29.76 in 10.0 mi WSW 8.1 mph - N/A   Mostly Cloudy
12:55 AM 39.2 °F 34.2 °F 33.8 °F 81% 29.76 in 10.0 mi WSW 6.9 mph - N/A   Mostly Cloudy
1:15 AM 39.2 °F 34.2 °F 35.6 °F 87% 29.75 in 10.0 mi SW 6.9 mph - N/A   Mostly Cloudy
1:35 AM 37.4 °F 32.8 °F 33.8 °F 87% 29.75 in 10.0 mi SW 5.8 mph - N/A   Mostly Cloudy
1:55 AM 37.4 °F 32.1 °F 33.8 °F 87% 29.74 in 10.0 mi SW 6.9 mph - N/A   Mostly Cloudy
2:15 AM 39.2 °F - 33.8 °F 81% 29.74 in 10.0 mi Calm Calm - N/A   Overcast
2:35 AM 37.4 °F 32.8 °F 35.6 °F 93% 29.74 in 10.0 mi West 5.8 mph - N/A   Overcast
2:55 AM 39.2 °F 33.0 °F 33.8 °F 81% 29.74 in 10.0 mi WSW 9.2 mph - N/A   Overcast
3:15 AM 39.2 °F 31.6 °F 33.8 °F 81% 29.75 in 10.0 mi WSW 12.7 mph - N/A   Overcast
3:35 AM 39.2 °F 32.5 °F 33.8 °F 81% 29.75 in 10.0 mi WSW 10.4 mph - N/A   Overcast
3:55 AM 39.2 °F 31.6 °F 33.8 °F 81% 29.74 in 10.0 mi SW 12.7 mph - N/A   Overcast
4:15 AM 39.2 °F 30.5 °F 33.8 °F 81% 29.74 in 10.0 mi SW 16.1 mph - N/A   Mostly Cloudy
4:35 AM 37.4 °F 28.2 °F 33.8 °F 87% 29.73 in 10.0 mi SW 16.1 mph - N/A   Overcast
4:55 AM 37.4 °F 27.2 °F 33.8 °F 87% 29.71 in 10.0 mi SW 19.6 mph 26.5 mph N/A   Overcast
5:15 AM 37.4 °F 27.2 °F 33.8 °F 87% 29.70 in 10.0 mi SW 19.6 mph - N/A   Partly Cloudy
5:35 AM 37.4 °F 30.8 °F 33.8 °F 87% 29.73 in 10.0 mi SW 9.2 mph - N/A   Scattered Clouds
5:55 AM 37.4 °F 34.9 °F 33.8 °F 87% 29.75 in 10.0 mi West 3.5 mph - N/A   Mostly Cloudy
6:15 AM 39.2 °F 33.0 °F 33.8 °F 81% 29.76 in 10.0 mi WSW 9.2 mph - N/A   Overcast
6:35 AM 37.4 °F 31.4 °F 33.8 °F 87% 29.76 in 10.0 mi West 8.1 mph - N/A   Overcast
6:55 AM 37.4 °F 31.4 °F 33.8 °F 87% 29.77 in 10.0 mi West 8.1 mph - N/A   Overcast
7:15 AM 37.4 °F 29.8 °F 33.8 °F 87% 29.78 in 10.0 mi WSW 11.5 mph - N/A   Overcast
7:35 AM 37.4 °F 34.9 °F 32.0 °F 81% 29.80 in 10.0 mi SW 3.5 mph - N/A   Scattered Clouds
7:55 AM 37.4 °F 32.8 °F 32.0 °F 81% 29.81 in 10.0 mi SSE 5.8 mph - N/A   Mostly Cloudy
8:15 AM 37.4 °F 30.8 °F 33.8 °F 87% 29.81 in 10.0 mi SSW 9.2 mph - N/A   Overcast
8:35 AM 39.2 °F 34.2 °F 33.8 °F 81% 29.81 in 10.0 mi South 6.9 mph - N/A   Overcast
8:55 AM 39.2 °F 33.6 °F 33.8 °F 81% 29.82 in 10.0 mi South 8.1 mph - N/A   Overcast
9:15 AM 39.2 °F 32.0 °F 33.8 °F 81% 29.81 in 10.0 mi SW 11.5 mph - N/A   Overcast
9:35 AM 39.2 °F 32.0 °F 33.8 °F 81% 29.81 in 10.0 mi SW 11.5 mph - N/A   Overcast
9:55 AM 39.2 °F 33.0 °F 33.8 °F 81% 29.83 in 10.0 mi SW 9.2 mph - N/A   Overcast
10:15 AM 39.2 °F 33.6 °F 33.8 °F 81% 29.83 in 10.0 mi WSW 8.1 mph - N/A   Mostly Cloudy
10:35 AM 41.0 °F 33.1 °F 35.6 °F 81% 29.82 in 10.0 mi SW 15.0 mph - N/A   Overcast
10:55 AM 42.8 °F 34.8 °F 35.6 °F 76% 29.81 in 10.0 mi SW 17.3 mph - N/A   Overcast
11:15 AM 42.8 °F 35.8 °F 32.0 °F 66% 29.80 in 10.0 mi SSW 13.8 mph - N/A   Overcast
11:35 AM 41.0 °F 34.3 °F 32.0 °F 70% 29.80 in 10.0 mi West 11.5 mph - N/A   Overcast
11:55 AM 37.4 °F 27.8 °F 32.0 °F 81% 29.80 in 4.0 mi West 17.3 mph 29.9 mph 0.01 in   Overcast
12:15 PM 39.2 °F 31.2 °F 33.8 °F 81% 29.78 in 10.0 mi West 13.8 mph - 0.01 in   Overcast
12:35 PM 41.0 °F 33.9 °F 33.8 °F 76% 29.76 in 10.0 mi WSW 12.7 mph - 0.01 in   Overcast
12:55 PM 42.8 °F 35.1 °F 33.8 °F 70% 29.75 in 10.0 mi WSW 16.1 mph - 0.01 in   Overcast
1:15 PM 44.6 °F 35.7 °F 35.6 °F 71% 29.73 in 10.0 mi WSW 24.2 mph 27.6 mph N/A   Overcast
1:35 PM 44.6 °F 36.9 °F 33.8 °F 66% 29.73 in 10.0 mi WSW 18.4 mph - N/A   Overcast
1:55 PM 42.8 °F 35.1 °F 30.2 °F 61% 29.72 in 10.0 mi WSW 16.1 mph 25.3 mph N/A   Overcast
2:15 PM 42.8 °F 35.1 °F 33.8 °F 70% 29.71 in 10.0 mi WSW 16.1 mph - N/A   Overcast
2:35 PM 42.8 °F 34.8 °F 32.0 °F 66% 29.71 in 10.0 mi SW 17.3 mph 25.3 mph N/A   Overcast
2:55 PM 41.0 °F 33.1 °F 33.8 °F 76% 29.70 in 10.0 mi SW 15.0 mph - N/A   Mostly Cloudy
3:15 PM 42.8 °F 37.0 °F 33.8 °F 70% 29.71 in 10.0 mi SW 10.4 mph - N/A   Partly Cloudy
3:35 PM 42.8 °F 37.5 °F 33.8 °F 70% 29.71 in 10.0 mi SW 9.2 mph - N/A   Scattered Clouds
3:55 PM 42.8 °F 36.6 °F 32.0 °F 66% 29.71 in 10.0 mi WSW 11.5 mph - N/A   Partly Cloudy
4:15 PM 42.8 °F 37.5 °F 30.2 °F 61% 29.70 in 10.0 mi WSW 9.2 mph - N/A   Clear
4:35 PM 41.0 °F 35.8 °F 30.2 °F 65% 29.70 in 10.0 mi WSW 8.1 mph - N/A   Partly Cloudy
4:55 PM 41.0 °F 35.2 °F 30.2 °F 65% 29.70 in 10.0 mi SW 9.2 mph - N/A   Scattered Clouds
5:15 PM 41.0 °F 33.1 °F 28.4 °F 61% 29.70 in 10.0 mi WSW 15.0 mph 18.4 mph N/A   Partly Cloudy
5:35 PM 42.8 °F 34.3 °F 28.4 °F 57% 29.69 in 10.0 mi WSW 19.6 mph 26.5 mph N/A   Clear
5:55 PM 42.8 °F 33.5 °F 28.4 °F 57% 29.69 in 10.0 mi WSW 23.0 mph 29.9 mph N/A   Clear
6:15 PM 42.8 °F 33.5 °F 28.4 °F 57% 29.69 in 10.0 mi WSW 23.0 mph 28.8 mph N/A   Partly Cloudy
6:35 PM 42.8 °F 33.8 °F 28.4 °F 57% 29.70 in 10.0 mi WSW 21.9 mph 25.3 mph N/A   Scattered Clouds
6:55 PM 42.8 °F 34.0 °F 28.4 °F 57% 29.71 in 10.0 mi WSW 20.7 mph 29.9 mph N/A   Clear
7:15 PM 44.6 °F 35.5 °F 28.4 °F 53% 29.70 in 10.0 mi WSW 25.3 mph 33.4 mph N/A   Mostly Cloudy
7:35 PM 44.6 °F 36.1 °F 28.4 °F 53% 29.71 in 10.0 mi WSW 21.9 mph 32.2 mph N/A   Overcast
7:55 PM 42.8 °F 35.1 °F 28.4 °F 57% 29.73 in 10.0 mi WSW 16.1 mph 33.4 mph N/A   Overcast
8:15 PM 42.8 °F 34.0 °F 26.6 °F 53% 29.73 in 10.0 mi WSW 20.7 mph 27.6 mph N/A   Mostly Cloudy
8:35 PM 42.8 °F 33.3 °F 26.6 °F 53% 29.72 in 10.0 mi WSW 24.2 mph 34.5 mph N/A   Partly Cloudy
8:55 PM 42.8 °F 33.8 °F 26.6 °F 53% 29.73 in 10.0 mi WSW 21.9 mph 35.7 mph N/A   Clear
9:15 PM 42.8 °F 33.5 °F 26.6 °F 53% 29.73 in 10.0 mi WSW 23.0 mph 33.4 mph N/A   Clear
9:35 PM 41.0 °F 31.4 °F 26.6 °F 57% 29.74 in 10.0 mi WSW 21.9 mph 31.1 mph N/A   Partly Cloudy
9:55 PM 41.0 °F 31.9 °F 26.6 °F 57% 29.75 in 10.0 mi WSW 19.6 mph 24.2 mph N/A   Mostly Cloudy
10:15 PM 41.0 °F 33.5 °F 26.6 °F 57% 29.76 in 10.0 mi WSW 13.8 mph 24.2 mph N/A   Mostly Cloudy
10:35 PM 41.0 °F 33.5 °F 26.6 °F 57% 29.77 in 10.0 mi WSW 13.8 mph - N/A   Overcast
10:55 PM 39.2 °F 29.6 °F 26.6 °F 61% 29.78 in 10.0 mi WSW 19.6 mph 23.0 mph N/A   Mostly Cloudy
11:15 PM 39.2 °F 30.2 °F 28.4 °F 65% 29.79 in 10.0 mi WSW 17.3 mph 24.2 mph N/A   Mostly Cloudy
11:35 PM 39.2 °F 29.8 °F 28.4 °F 65% 29.79 in 10.0 mi WSW 18.4 mph 24.2 mph N/A   Mostly Cloudy
11:55 PM 39.2 °F 29.6 °F 28.4 °F 65% 29.80 in 10.0 mi WSW 19.6 mph 25.3 mph N/A   Overcast